FW4030 Weather Reports


Display with metric or nautical units.
time (UTC)temp
F
wind
direction
speed
MPH
gust
MPH
rain 1hr
in
rain 24hr
in
rain mn
in
humidity
%
barometer
mb
20260506174935 48 180 2.0 5.0 0.00 0.00 0.00 96 1020.8
20260506174033 48 180 2.0 3.0 0.00 0.00 0.00 96 1020.8
20260506173035 47 180 2.0 4.0 0.00 0.00 0.00 96 1020.7
20260506171035 48 180 2.0 3.0 0.00 0.00 0.00 95 1020.6
20260506170133 48 180 3.0 6.0 0.00 0.00 0.00 95 1020.5
20260506170036 48 180 2.0 4.0 0.00 0.00 0.00 95 1020.5
20260506165035 48 161 3.0 7.0 0.00 0.00 0.00 94 1020.5
20260506162035 48 176 2.0 7.0 0.00 0.00 0.00 94 1020.4
20260506161035 48 180 2.0 5.0 0.00 0.00 0.00 94 1020.2
20260506160036 48 166 3.0 6.0 0.00 0.00 0.00 95 1020.3
20260506155938 48 180 0.0 3.0 0.00 0.00 0.00 95 1020.3
20260506154934 48 180 3.0 4.0 0.00 0.00 0.00 95 1020.3
20260506153837 48 180 4.0 6.0 0.00 0.00 0.00 95 1020.4
20260506152934 48 180 4.0 6.0 0.00 0.00 0.00 96 1020.3
20260506151935 48 180 4.0 7.0 0.00 0.00 0.00 96 1020.2
20260506144033 48 180 4.0 7.0 0.00 0.00 0.00 96 1020.0
20260506143036 48 115 0.0 5.0 0.00 0.00 0.00 96 1020.0
20260506142936 48 180 3.0 5.0 0.00 0.00 0.00 96 1020.0
20260506141037 48 180 4.0 9.0 0.00 0.00 0.00 96 1020.0
20260506140039 48 158 2.0 9.0 0.00 0.00 0.00 96 1020.0
20260506135033 48 180 3.0 6.0 0.00 0.00 0.00 96 1019.8
20260506134035 48 180 5.0 8.0 0.00 0.00 0.00 96 1019.9
20260506133037 48 101 1.0 3.0 0.00 0.00 0.00 95 1019.8
20260506132036 48 174 2.0 5.0 0.00 0.00 0.00 96 1019.8
20260506131134 48 166 1.0 3.0 0.00 0.00 0.00 96 1019.8
20260506130133 48 133 1.0 3.0 0.00 0.00 0.00 96 1019.7
20260506125135 47 180 1.0 4.0 0.00 0.00 0.00 96 1019.7
20260506124134 47 176 2.0 7.0 0.00 0.00 0.00 96 1019.7
20260506123134 47 169 4.0 7.0 0.00 0.00 0.00 96 1019.5
20260506122234 47 180 3.0 5.0 0.00 0.00 0.00 95 1019.5
20260506122135 47 180 3.0 6.0 0.00 0.00 0.00 95 1019.5
20260506121135 47 172 3.0 5.0 0.00 0.00 0.00 95 1019.5
20260506120136 48 174 4.0 9.0 0.00 0.00 0.00 95 1019.4
20260506114134 48 179 2.0 5.0 0.00 0.00 0.00 96 1019.3
20260506112137 47 172 3.0 6.0 0.00 0.00 0.00 96 1019.3
20260506111135 47 180 3.0 7.0 0.00 0.00 0.00 96 1019.2
20260506110135 47 161 1.0 4.0 0.00 0.00 0.00 95 1019.3
20260506105135 47 161 1.0 5.0 0.00 0.00 0.00 95 1019.3
20260506104135 47 166 4.0 7.0 0.00 0.00 0.00 95 1019.3
20260506103137 47 164 4.0 7.0 0.00 0.00 0.00 96 1019.2
20260506102234 47 172 1.0 3.0 0.00 0.00 0.00 96 1019.1
20260506101233 47 176 4.0 8.0 0.00 0.00 0.00 96 1019.0
20260506100235 47 158 2.0 6.0 0.00 0.00 0.00 95 1018.9
20260506095236 47 141 2.0 5.0 0.00 0.00 0.00 95 1018.8
20260506094333 47 161 5.0 9.0 0.00 0.00 0.00 96 1018.9
20260506093333 47 172 5.0 10.0 0.00 0.00 0.00 96 1018.6
20260506093235 47 178 4.0 10.0 0.00 0.00 0.00 96 1018.6
20260506093135 47 180 6.0 11.0 0.00 0.00 0.00 96 1018.6
20260506092135 47 180 7.0 13.0 0.00 0.00 0.00 97 1018.5
20260506091033 47 176 6.0 14.0 0.00 0.00 0.00 97 1018.6
20260506090038 47 176 5.0 9.0 0.00 0.00 0.00 97 1018.3
20260506083035 48 180 4.0 7.0 0.00 0.00 0.00 98 1018.1
20260506082934 48 180 1.0 5.0 0.00 0.00 0.00 98 1018.1
20260506081835 48 163 2.0 4.0 0.00 0.00 0.00 99 1018.1
20260506080933 48 180 3.0 6.0 0.00 0.00 0.00 99 1018.1
20260506073038 48 180 2.0 6.0 0.00 0.00 0.00 99 1017.9
20260506072035 48 180 3.0 7.0 0.00 0.00 0.00 99 1018.0
20260506071036 48 180 3.0 5.0 0.00 0.00 0.00 99 1017.9
20260506061835 47 178 6.0 10.0 0.00 0.00 0.00 99 1017.8
20260506060933 47 180 3.0 5.0 0.00 0.00 0.00 99 1017.8
20260506051034 47 180 1.0 4.0 0.00 0.00 0.00 99 1017.7
20260506045035 47 180 5.0 8.0 0.00 0.00 0.00 99 1017.5
20260506044034 47 180 5.0 9.0 0.00 0.00 0.00 99 1017.5
20260506043036 47 180 5.0 8.0 0.00 0.00 0.00 99 1017.6
20260506042034 48 174 4.0 6.0 0.00 0.00 0.00 99 1017.5
20260506041036 47 169 2.0 4.0 0.00 0.00 0.00 99 1017.6
20260506040044 47 178 3.0 6.0 0.00 0.00 0.00 99 1017.6
20260506035034 48 180 3.0 7.0 0.00 0.00 0.00 99 1017.5
20260506034934 48 180 4.0 7.0 0.00 0.00 0.00 99 1017.6
20260506032935 48 166 2.0 5.0 0.00 0.00 0.00 99 1017.6
20260506032032 48 164 2.0 4.0 0.00 0.00 0.00 99 1017.7
20260506031034 48 180 5.0 10.0 0.00 0.00 0.00 99 1017.8
20260506030038 48 169 2.0 5.0 0.00 0.00 0.00 99 1017.8
20260506025034 48 180 3.0 6.0 0.00 0.00 0.00 99 1017.9
20260506024034 48 172 3.0 5.0 0.00 0.00 0.00 99 1017.9
20260506023133 47 180 3.0 7.0 0.00 0.00 0.00 99 1017.9
20260506022134 47 180 3.0 7.0 0.00 0.00 0.00 99 1018.0
20260506021133 47 180 4.0 8.0 0.00 0.00 0.00 99 1018.0
20260506015233 47 180 3.0 5.0 0.00 0.00 0.00 99 1018.0
20260506014235 47 180 5.0 10.0 0.00 0.00 0.00 99 1018.3
20260506012234 47 176 3.0 7.0 0.00 0.00 0.00 99 1018.2
20260506011235 47 180 4.0 5.0 0.00 0.00 0.00 99 1018.3
20260506011136 47 178 2.0 6.0 0.00 0.00 0.00 99 1018.3
20260506010135 47 180 5.0 8.0 0.00 0.00 0.00 99 1018.4
20260506005136 47 180 3.0 5.0 0.00 0.00 0.00 99 1018.4
20260506004133 47 180 4.0 7.0 0.00 0.00 0.00 99 1018.6
20260506003135 47 180 3.0 6.0 0.00 0.00 0.00 99 1018.6
20260506002232 48 180 3.0 5.0 0.00 0.00 0.00 99 1018.7
20260506001233 48 178 4.0 7.0 0.00 0.00 0.00 98 1018.8
20260506000235 48 180 4.0 7.0 0.00 0.00 0.00 98 1018.8
20260505235234 48 180 4.0 6.0 0.00 0.00 0.00 98 1018.9
20260505235135 48 178 4.0 7.0 0.00 0.00 0.00 98 1018.9
20260505233135 48 180 4.0 7.0 0.00 0.00 0.00 98 1019.1
20260505232134 48 180 4.0 6.0 0.00 0.00 0.00 98 1019.1
20260505231135 48 166 4.0 7.0 0.00 0.00 0.00 98 1019.1
20260505230233 48 165 2.0 5.0 0.00 0.00 0.00 98 1019.2
20260505225236 48 180 4.0 9.0 0.00 0.00 0.00 98 1019.4
20260505224234 49 176 3.0 7.0 0.00 0.00 0.00 98 1019.5
20260505223233 49 178 3.0 7.0 0.00 0.00 0.00 98 1019.3
20260505221334 49 180 5.0 8.0 0.00 0.00 0.00 98 1019.4
20260505221235 49 169 3.0 8.0 0.00 0.00 0.00 98 1019.5
20260505220234 49 180 4.0 7.0 0.00 0.00 0.00 98 1019.5
20260505214316 49 180 3.0 5.0 0.00 0.00 0.00 98 1019.7
20260505214214 49 180 4.0 7.0 0.00 0.00 0.00 98 1019.7
20260505213214 49 163 2.0 6.0 0.00 0.00 0.00 98 1019.6
20260505212216 49 172 2.0 3.0 0.00 0.00 0.00 98 1019.8
20260505212115 49 180 4.0 6.0 0.00 0.00 0.00 98 1019.7
20260505211114 49 180 3.0 7.0 0.00 0.00 0.00 98 1019.8
20260505210115 49 119 1.0 2.0 0.00 0.00 0.00 98 1019.9
20260505205116 49 180 3.0 5.0 0.00 0.00 0.00 98 1019.9
20260505204114 49 176 2.0 7.0 0.00 0.00 0.00 98 1019.9
20260505203114 49 180 2.0 4.0 0.00 0.00 0.00 98 1020.0
20260505202115 49 166 4.0 8.0 0.00 0.00 0.00 98 1020.0
20260505201114 49 180 4.0 7.0 0.00 0.00 0.00 98 1020.1
20260505194115 50 180 2.0 3.0 0.00 0.00 0.00 99 1019.8
20260505193213 50 180 3.0 5.0 0.00 0.00 0.00 99 1019.8
20260505192215 50 180 2.0 4.0 0.00 0.00 0.00 99 1019.9
20260505191016 50 180 1.0 2.0 0.00 0.00 0.00 98 1019.8
20260505185113 50 180 4.0 6.0 0.00 0.00 0.00 98 1019.5
20260505184116 50 151 2.0 3.0 0.00 0.00 0.00 98 1019.7
20260505183115 50 178 2.0 5.0 0.00 0.00 0.00 98 1019.7
20260505182214 50 109 1.0 6.0 0.00 0.00 0.00 98 1019.8
20260505182115 50 174 2.0 5.0 0.00 0.00 0.00 98 1019.7
20260505181214 50 172 1.0 3.0 0.00 0.00 0.00 98 1019.7
20260505181117 50 180 1.0 5.0 0.00 0.00 0.00 98 1019.7
20260505180116 50 151 2.0 5.0 0.00 0.00 0.00 98 1019.8